Regional Weather Roundup
Issued by NWS

Home | Current Version | Previous Version | Graphics & Text | Print | Product List | Glossary On
Versions: 1 2 3 4 5 6 7 8 9 10 11 12 13 14 15 16 17 18 19 20 21 22 23 24 25 26 27 28 29 30 31 32 33 34 35 36 37 38 39 40 41 42 43 44 45 46 47 48 49 50
000
ASUS43 KLSX 311707
RWRMO

WEATHER SUMMARY FOR MISSOURI
NATIONAL WEATHER SERVICE SPRINGFIELD MO
1200 PM CDT TUE MAY 31 2016

NOTE: "FAIR" INDICATES FEW OR NO CLOUDS BELOW 12,000 FEET WITH NO
       SIGNIFICANT WEATHER AND/OR OBSTRUCTIONS TO VISIBILITY.
       CURRENT SKY AND/OR WEATHER CONDITIONS ARE NOT AVAILABLE FOR
       CHILLICOTHE AND FARMINGTON.

MOZ001>031-035>038-043-044-053-054-311800-
...NORTHERN AND WESTERN MISSOURI...

CITY           SKY/WX    TMP DP  RH WIND       PRES   REMARKS
KANSAS CTY INT CLOUDY    71  63  75 VRB3      29.95F
LEE`S SUMMIT   CLOUDY    73  64  73 VRB3      29.96F
ST JOSEPH      CLOUDY    72  63  73 S9        29.94F
CHILLICOTHE      N/A     75  65  70 S9        29.96S

$$
MOZ066>068-077>081-088>096-101>105-311800-
...SOUTHWEST MISSOURI...

CITY           SKY/WX    TMP DP  RH WIND       PRES   REMARKS
SPRINGFIELD    CLOUDY    73  64  73 S8        29.99R
JOPLIN         CLOUDY    73  68  84 W9        29.98S
BRANSON        PTSUNNY   73  64  73 SE6       30.00S

$$
MOZ032>034-039>042-045>050-055>058-069>072-311800-
...CENTRAL MISSOURI...

CITY           SKY/WX    TMP DP  RH WIND       PRES   REMARKS
COLUMBIA       NOT AVBL
JEFFERSON CITY CLOUDY    77  62  59 S7        29.96S
ROLLA          MOSUNNY   75  64  68 S12       29.98F
SEDALIA        CLOUDY    80  65  59 S16G22    29.96F
WHITEMAN AFB   PTSUNNY   74  69  82 SW9       29.95S
WARRENSBURG    CLOUDY    72  64  78 S7        29.96R

$$
MOZ051-052-059>065-311800-
...EAST CENTRAL MISSOURI...

CITY           SKY/WX    TMP DP  RH WIND       PRES   REMARKS
ST LOUIS INTL  CLOUDY    76  61  59 E6        29.98F

$$
MOZ072>076-082>087-097>100-106>115-311800-
...SOUTH CENTRAL AND SOUTHEAST MISSOURI...

CITY           SKY/WX    TMP DP  RH WIND       PRES   REMARKS
CAPE GIRARDEAU MOSUNNY   80  65  59 SW9       29.98S
POPLAR BLUFF   CLOUDY    76  69  79 S5        29.98F
WEST PLAINS    PTSUNNY   72  64  76 E3        30.01F

$$


USA.gov is the U.S. government's official web portal to all federal, state and local government web resources and services.